FWI418 TFFF-TFFR

Flight info

Callsign FWI418
Flight time 0h 31m
Altitude 12000
Route LIDOS2R LIDOS DCT PPR
Aircraft AT76/M-SDFGIRY/S

Departure

Time 2026-04-28 00:35
Airport Martinique Aimé Césaire International Airport (TFFF)

Arrival

Time 2026-04-28 01:06
Airport Maryse Condé International Airport (TFFR)
Time Latitude Longitude Altitude Speed Heading
2026-04-28 00:19 14.59434 -60.99840 15 ft 0 kts 80°
2026-04-28 00:30 14.59433 -60.99838 15 ft 0 kts 100°
2026-04-28 00:30 14.59428 -60.99839 15 ft 1 kts 171°
2026-04-28 00:30 14.59393 -60.99855 16 ft 6 kts 210°
2026-04-28 00:30 14.59375 -60.99900 15 ft 10 kts 262°
2026-04-28 00:31 14.59361 -60.99985 15 ft 15 kts 259°
2026-04-28 00:31 14.59333 -61.00041 15 ft 12 kts 196°
2026-04-28 00:31 14.59248 -61.00024 16 ft 12 kts 172°
2026-04-28 00:31 14.59168 -61.00049 14 ft 13 kts 225°
2026-04-28 00:32 14.59142 -61.00149 12 ft 16 kts 267°
2026-04-28 00:32 14.59114 -61.00262 12 ft 16 kts 255°
2026-04-28 00:32 14.59096 -61.00381 12 ft 17 kts 260°
2026-04-28 00:32 14.59076 -61.00504 11 ft 18 kts 262°
2026-04-28 00:33 14.59058 -61.00626 13 ft 16 kts 259°
2026-04-28 00:33 14.59056 -61.00728 16 ft 10 kts 272°
2026-04-28 00:33 14.59039 -61.00742 18 ft 2 kts 162°
2026-04-28 00:33 14.59037 -61.00718 19 ft 5 kts 73°
2026-04-28 00:34 14.59045 -61.00680 20 ft 6 kts 80°
2026-04-28 00:34 14.59060 -61.00579 12 ft 38 kts 79°
2026-04-28 00:34 14.59141 -61.00121 13 ft 92 kts 80°
2026-04-28 00:34 14.59279 -60.99332 163 ft 120 kts 79°
2026-04-28 00:35 14.59428 -60.98501 690 ft 118 kts 80°
2026-04-28 00:35 14.59593 -60.97615 1036 ft 135 kts 79°
2026-04-28 00:35 14.59795 -60.96600 1366 ft 152 kts 78°
2026-04-28 00:35 14.60031 -60.95494 1786 ft 161 kts 77°
2026-04-28 00:36 14.60310 -60.94377 2291 ft 161 kts 70°
2026-04-28 00:36 14.61150 -60.93642 2855 ft 169 kts 15°
2026-04-28 00:36 14.62300 -60.93869 3397 ft 172 kts 339°
2026-04-28 00:36 14.63428 -60.94401 3746 ft 184 kts 337°
2026-04-28 00:37 14.64590 -60.94982 4113 ft 192 kts 339°
2026-04-28 00:37 14.65839 -60.95522 4414 ft 196 kts 343°
2026-04-28 00:37 14.67148 -60.95962 4784 ft 199 kts 348°
2026-04-28 00:37 14.68512 -60.96285 5151 ft 202 kts 353°
2026-04-28 00:38 14.69901 -60.96507 5517 ft 204 kts 356°
2026-04-28 00:38 14.71327 -60.96683 5884 ft 207 kts 357°
2026-04-28 00:38 14.72771 -60.96839 6250 ft 209 kts 358°
2026-04-28 00:38 14.74202 -60.96996 6614 ft 210 kts 358°
2026-04-28 00:39 14.75664 -60.97163 6970 ft 212 kts 357°
2026-04-28 00:39 14.77137 -60.97346 7315 ft 213 kts 356°
2026-04-28 00:39 14.78615 -60.97532 7666 ft 214 kts 356°
2026-04-28 00:39 14.80090 -60.97722 8024 ft 214 kts 356°
2026-04-28 00:40 14.81567 -60.97914 8388 ft 214 kts 356°
2026-04-28 00:40 14.83023 -60.98103 8749 ft 214 kts 356°
2026-04-28 00:40 14.84500 -60.98296 9118 ft 213 kts 355°
2026-04-28 00:40 14.85973 -60.98489 9500 ft 213 kts 356°
2026-04-28 00:41 14.87457 -60.98681 9790 ft 217 kts 356°
2026-04-28 00:41 14.88953 -60.98869 10049 ft 220 kts 356°
2026-04-28 00:41 14.90488 -60.99069 10299 ft 223 kts 355°
2026-04-28 00:41 14.92041 -60.99276 10554 ft 225 kts 355°
2026-04-28 00:42 14.93603 -60.99486 10810 ft 227 kts 355°
2026-04-28 00:42 14.95156 -60.99692 11064 ft 229 kts 355°
2026-04-28 00:42 14.96739 -60.99901 11325 ft 230 kts 355°
2026-04-28 00:42 14.98331 -61.00102 11586 ft 231 kts 355°
2026-04-28 00:43 14.99941 -61.00303 11851 ft 232 kts 355°
2026-04-28 00:43 15.01579 -61.00507 11963 ft 241 kts 354°
2026-04-28 00:43 15.03262 -61.00715 12021 ft 249 kts 355°
2026-04-28 00:43 15.05021 -61.00927 12045 ft 258 kts 355°
2026-04-28 00:44 15.06826 -61.01147 12056 ft 264 kts 354°
2026-04-28 00:44 15.08677 -61.01377 12060 ft 270 kts 354°
2026-04-28 00:44 15.10516 -61.01610 12064 ft 268 kts 354°
2026-04-28 00:44 15.12373 -61.01851 12066 ft 267 kts 354°
2026-04-28 00:45 15.14219 -61.02091 12071 ft 266 kts 354°
2026-04-28 00:45 15.15442 -61.02251 12069 ft 266 kts 354°
2026-04-28 00:45 15.17880 -61.02572 12067 ft 266 kts 354°
2026-04-28 00:45 15.19712 -61.02814 12067 ft 265 kts 354°
2026-04-28 00:46 15.20931 -61.02975 12069 ft 265 kts 354°
2026-04-28 00:46 15.23368 -61.03292 12070 ft 265 kts 354°
2026-04-28 00:46 15.24607 -61.03450 12070 ft 265 kts 354°
2026-04-28 00:46 15.26416 -61.03681 12070 ft 265 kts 354°
2026-04-28 00:47 15.28251 -61.03912 12074 ft 265 kts 354°
2026-04-28 00:47 15.30065 -61.04142 12071 ft 265 kts 354°
2026-04-28 00:47 15.31904 -61.04375 12072 ft 265 kts 354°
2026-04-28 00:47 15.33735 -61.04611 12075 ft 264 kts 354°
2026-04-28 00:48 15.35539 -61.04843 12073 ft 264 kts 354°
2026-04-28 00:48 15.37376 -61.05080 12073 ft 264 kts 354°
2026-04-28 00:48 15.39209 -61.05316 12069 ft 264 kts 354°
2026-04-28 00:48 15.41037 -61.05550 12074 ft 264 kts 354°
2026-04-28 00:49 15.42841 -61.05778 12073 ft 265 kts 354°
2026-04-28 00:49 15.44678 -61.06014 12071 ft 265 kts 354°
2026-04-28 00:49 15.46492 -61.06247 12071 ft 264 kts 354°
2026-04-28 00:49 15.48326 -61.06482 12074 ft 264 kts 354°
2026-04-28 00:50 15.50152 -61.06716 12075 ft 264 kts 354°
2026-04-28 00:50 15.51980 -61.06952 12076 ft 264 kts 354°
2026-04-28 00:50 15.53806 -61.07188 12073 ft 265 kts 354°
2026-04-28 00:50 15.55635 -61.07422 12075 ft 265 kts 354°
2026-04-28 00:51 15.57449 -61.07659 12074 ft 264 kts 352°
2026-04-28 00:51 15.59118 -61.08394 12077 ft 263 kts 321°
2026-04-28 00:51 15.60474 -61.09663 12075 ft 262 kts 318°
2026-04-28 00:51 15.61835 -61.10903 12074 ft 263 kts 321°
2026-04-28 00:52 15.63306 -61.12042 12075 ft 263 kts 326°
2026-04-28 00:52 15.64855 -61.13070 12076 ft 264 kts 329°
2026-04-28 00:52 15.66430 -61.14064 12076 ft 265 kts 329°
2026-04-28 00:52 15.68005 -61.15061 12074 ft 265 kts 329°
2026-04-28 00:53 15.69550 -61.16064 12074 ft 265 kts 328°
2026-04-28 00:53 15.71114 -61.17098 12076 ft 265 kts 328°
2026-04-28 00:53 15.72672 -61.18130 12078 ft 265 kts 328°
2026-04-28 00:53 15.74235 -61.19166 12075 ft 266 kts 327°
2026-04-28 00:54 15.75781 -61.20191 11883 ft 265 kts 328°
2026-04-28 00:54 15.77334 -61.21225 11597 ft 264 kts 328°
2026-04-28 00:54 15.78880 -61.22252 11299 ft 262 kts 328°
2026-04-28 00:54 15.80395 -61.23259 11032 ft 261 kts 328°
2026-04-28 00:55 15.81920 -61.24275 10753 ft 259 kts 328°
2026-04-28 00:55 15.83438 -61.25281 10469 ft 258 kts 328°
2026-04-28 00:55 15.84953 -61.26288 10190 ft 257 kts 328°
2026-04-28 00:55 15.86438 -61.27278 9913 ft 255 kts 328°
2026-04-28 00:56 15.87932 -61.28278 9609 ft 254 kts 328°
2026-04-28 00:56 15.89415 -61.29278 9305 ft 253 kts 328°
2026-04-28 00:56 15.90877 -61.30265 9012 ft 253 kts 328°
2026-04-28 00:56 15.92354 -61.31264 8713 ft 252 kts 329°
2026-04-28 00:57 15.93020 -61.31713 8577 ft 252 kts 329°
2026-04-28 00:57 15.93847 -61.32264 8419 ft 252 kts 329°
2026-04-28 00:57 15.95307 -61.33232 8124 ft 251 kts 329°
2026-04-28 00:57 15.96780 -61.34209 7835 ft 251 kts 329°
2026-04-28 00:58 15.98255 -61.35193 7478 ft 254 kts 329°
2026-04-28 00:58 15.99743 -61.36191 7104 ft 249 kts 329°
2026-04-28 00:58 16.01158 -61.37134 6733 ft 233 kts 330°
2026-04-28 00:58 16.02478 -61.38014 6352 ft 223 kts 330°
2026-04-28 00:59 16.03767 -61.38871 5943 ft 215 kts 330°
2026-04-28 00:59 16.05016 -61.39701 5557 ft 210 kts 330°
2026-04-28 00:59 16.06227 -61.40536 5165 ft 210 kts 322°
2026-04-28 00:59 16.07189 -61.41675 4916 ft 213 kts 311°
2026-04-28 01:00 16.08126 -61.42886 4675 ft 216 kts 310°
2026-04-28 01:00 16.09074 -61.44117 4433 ft 218 kts 310°
2026-04-28 01:00 16.10026 -61.45360 4190 ft 220 kts 310°
2026-04-28 01:00 16.10983 -61.46613 3949 ft 222 kts 310°
2026-04-28 01:01 16.11936 -61.47858 3713 ft 223 kts 310°
2026-04-28 01:01 16.12919 -61.49141 3470 ft 225 kts 310°
2026-04-28 01:01 16.13877 -61.50397 3220 ft 224 kts 310°
2026-04-28 01:01 16.14837 -61.51658 3090 ft 219 kts 310°
2026-04-28 01:02 16.15768 -61.52878 3009 ft 213 kts 310°
2026-04-28 01:02 16.16682 -61.54099 2802 ft 214 kts 309°
2026-04-28 01:02 16.17604 -61.55310 2641 ft 212 kts 310°
2026-04-28 01:02 16.18502 -61.56498 2541 ft 207 kts 310°
2026-04-28 01:03 16.19438 -61.57613 2317 ft 204 kts 315°
2026-04-28 01:03 16.20449 -61.58556 2170 ft 184 kts 328°
2026-04-28 01:03 16.21534 -61.59181 2071 ft 170 kts 339°
2026-04-28 01:03 16.22649 -61.59547 1783 ft 170 kts 352°
2026-04-28 01:04 16.23803 -61.59746 1514 ft 161 kts 358°
2026-04-28 01:04 16.24851 -61.59696 1366 ft 138 kts 14°
2026-04-28 01:04 16.25747 -61.59495 1147 ft 131 kts 20°
2026-04-28 01:04 16.26578 -61.59249 1103 ft 123 kts 22°
2026-04-28 01:05 16.27220 -61.58714 1018 ft 119 kts 59°
2026-04-28 01:05 16.27425 -61.57913 846 ft 116 kts 94°
2026-04-28 01:05 16.27271 -61.57087 698 ft 114 kts 107°
2026-04-28 01:05 16.27103 -61.56274 485 ft 114 kts 103°
2026-04-28 01:06 16.26950 -61.55463 293 ft 119 kts 102°
2026-04-28 01:06 16.26801 -61.54622 84 ft 116 kts 102°
2026-04-28 01:06 16.26650 -61.53836 16 ft 99 kts 101°
2026-04-28 01:06 16.26589 -61.53495 21 ft 29 kts 101°
2026-04-28 01:07 16.26552 -61.53305 15 ft 23 kts 101°
2026-04-28 01:07 16.26526 -61.53167 16 ft 16 kts 101°
2026-04-28 01:07 16.26509 -61.53069 16 ft 12 kts 98°
2026-04-28 01:07 16.26522 -61.53003 18 ft 10 kts 52°
2026-04-28 01:08 16.26594 -61.52971 19 ft 12 kts
2026-04-28 01:08 16.26674 -61.52961 19 ft 11 kts 12°
2026-04-28 01:08 16.26752 -61.52945 19 ft 12 kts 12°
2026-04-28 01:08 16.26835 -61.52930 18 ft 12 kts
2026-04-28 01:09 16.26873 -61.52980 17 ft 11 kts 285°
2026-04-28 01:09 16.26918 -61.53013 17 ft 8 kts 352°
2026-04-28 01:09 16.26981 -61.53030 17 ft 11 kts 348°
2026-04-28 01:09 16.27045 -61.53033 18 ft 8 kts
2026-04-28 01:10 16.27095 -61.53004 18 ft 8 kts 39°
2026-04-28 01:10 16.27122 -61.52956 18 ft 7 kts 66°
2026-04-28 01:10 16.27124 -61.52911 20 ft 6 kts 100°
2026-04-28 01:10 16.27109 -61.52883 18 ft 3 kts 153°
2026-04-28 01:11 16.27091 -61.52884 18 ft 3 kts 192°
2026-04-28 01:11 16.27080 -61.52898 19 ft 0 kts 237°
2026-04-28 01:11 16.27079 -61.52901 19 ft 0 kts 245°